Delta Junction, AK

8:11 AM AKDT on September 29, 2016 (GMT -0800)
Allen Army Air Field

Weather History for PABI - December, 2012

Change the Weather History Date:

Thursday, December 6, 2012

  Actual Average Record
Temperature  
Mean Temperature -20 °F -  
Max Temperature -11 °F 6 °F 25 °F (2002)
Min Temperature -29 °F -1 °F -34 °F (2001)
Degree Days  
Heating Degree Days 85    
Moisture  
Dew Point -32 °F    
Average Humidity 74    
Maximum Humidity 78    
Minimum Humidity 63    
Precipitation  
Precipitation 0.00 in - - ()
Sea Level Pressure  
Sea Level Pressure 30.13 in    
Wind  
Wind Speed 2 mph (SW)    
Max Wind Speed 5 mph    
Max Gust Speed -    
Visibility 10 miles    
Events      
Averages and records for this station are not official NWS values.
T = Trace of Precipitation, MM = Missing Value Source: NWS Daily Summary

Daily Weather History Graph

Daily Weather History Graph

Search for Another Location

Airport or City:

Trip Planner

Search our weather history database for the weather conditions in past years. The results will help you decide how hot, cold, wet, or windy it might be!

Date:

Astronomy

Dec. 06, 2012 Rise Set
Actual Time 10:13 AM AKST 2:54 PM AKST
Civil Twilight 9:00 AM AKST 4:07 PM AKST
Nautical Twilight 7:53 AM AKST 5:14 PM AKST
Astronomical Twilight 6:54 AM AKST 6:13 PM AKST
Moon 12:04 AM AKST (12/6) 12:48 PM AKST (12/6)
Length of Visible Light 7h 07m
Length of Day
4h 41m
Waning Gibbous, 48% of the Moon is Illuminated
Dec 6
Waning Gibbous
Dec 12
New
Dec 19
First Quarter
Dec 28
Full
Jan 4
Last Quarter

Hourly Weather History & Observations

Time (AKST) Temp. Windchill Dew Point Humidity Pressure Visibility Wind Dir Wind Speed Gust Speed Precip Events Conditions
12:53 AM -25.1 °F - -29.9 °F 78% 30.04 in 10.0 mi Calm Calm - N/A   Clear
1:53 AM -26.0 °F - -32.1 °F 73% 30.04 in 10.0 mi Calm Calm - N/A   Clear
2:53 AM -26.0 °F -37.5 °F -31.0 °F 77% 30.05 in 10.0 mi WSW 3.5 mph - N/A   Clear
3:53 AM -27.0 °F - -32.1 °F 77% 30.05 in 10.0 mi Calm Calm - N/A   Clear
4:53 AM -27.0 °F - -32.1 °F 77% 30.05 in 10.0 mi Calm Calm - N/A   Clear
5:53 AM -27.9 °F -39.8 °F -33.0 °F 77% 30.06 in 10.0 mi SW 3.5 mph - N/A   Clear
6:53 AM -27.9 °F -42.5 °F -33.0 °F 77% 30.06 in 10.0 mi SW 4.6 mph - N/A   Clear
7:53 AM -27.0 °F -38.7 °F -33.0 °F 73% 30.07 in 10.0 mi SW 3.5 mph - N/A   Clear
8:53 AM -27.9 °F -42.5 °F -33.0 °F 77% 30.08 in 10.0 mi SSW 4.6 mph - N/A   Partly Cloudy
9:53 AM -27.9 °F - -34.1 °F 73% 30.09 in 10.0 mi Calm Calm - N/A   Partly Cloudy
10:53 AM -27.9 °F -42.5 °F -33.0 °F 77% 30.12 in 10.0 mi SW 4.6 mph - N/A   Partly Cloudy
11:53 AM -27.0 °F - -33.0 °F 73% 30.13 in 10.0 mi Calm Calm - N/A   Scattered Clouds
12:53 PM -25.1 °F -39.1 °F -31.0 °F 74% 30.14 in 10.0 mi WSW 4.6 mph - N/A   Scattered Clouds
1:53 PM -24.0 °F -37.9 °F -29.9 °F 74% 30.15 in 10.0 mi SW 4.6 mph - N/A   Scattered Clouds
2:53 PM -26.0 °F - -31.0 °F 77% 30.16 in 10.0 mi Calm Calm - N/A   Scattered Clouds
3:53 PM -23.1 °F -36.8 °F -29.0 °F 74% 30.17 in 10.0 mi SW 4.6 mph - N/A   Scattered Clouds
4:53 PM -26.0 °F - -31.0 °F 77% 30.18 in 10.0 mi Calm Calm - N/A   Scattered Clouds
5:53 PM -29.0 °F - -35.0 °F 73% 30.19 in 10.0 mi Calm Calm - N/A   Partly Cloudy
6:53 PM -26.0 °F -37.5 °F -32.1 °F 73% 30.19 in 10.0 mi SSW 3.5 mph - N/A   Partly Cloudy
7:53 PM -26.0 °F -37.5 °F -31.0 °F 77% 30.21 in 10.0 mi SSW 3.5 mph - N/A   Partly Cloudy
8:53 PM -27.0 °F -41.5 °F -32.1 °F 77% 30.21 in 10.0 mi SSW 4.6 mph - N/A   Partly Cloudy
9:53 PM -27.9 °F -39.8 °F -34.1 °F 73% 30.23 in 10.0 mi SSE 3.5 mph - N/A   Clear
10:53 PM -27.0 °F - -33.0 °F 73% 30.24 in 10.0 mi Calm Calm - N/A   Clear
11:53 PM -29.9 °F - - N/A% 30.24 in 10.0 mi Calm Calm - N/A   Clear